Location: Arcones
(41.1182°N, 3.7238°W)
Time: 21:24:26
(UTC+00:00)

SL-16 R/B - Pass Details

Date: 11 December 2025
Orbit: 985 x 1007 km, 99.8° (Epoch: 11 January)

Event Time Altitude Azimuth Distance (km) Brightness Sun altitude
Rises 18:11:43 0° 4° (N) 3,729 5.3 -15.5°
Reaches altitude 10° 18:14:34 10° 352° (N) 2,772 4.8 -16.0°
Maximum altitude 18:19:35 26° 298° (WNW) 1,832 4.4 -16.9°
Drops below altitude 10° 18:24:33 10° 244° (WSW) 2,748 6.1 -17.8°
Sets 18:27:23 0° 233° (SW) 3,689 6.8 -18.4°
